sat.trackr.live / text

‹ back to catalog

STARLINK-6127

NORAD 57135 · 2023-090AL

PAYLOAD ACTIVE UNKNOWN

§ Identity

Operator
Country
US
Launch date
2023-06-23
Launch site
AFETR
Launch vehicle
Mass (kg)
RCS (m²)

Purposes: comms

External: N2YO · Heavens-Above · Gunter

§ Orbital elements

Epoch: 2026-09-20T23:37:59.965248Z

Period
94.27 min
Inclination
43.0043°
Eccentricity
0.0001090
Mean motion
15.27576924 rev/d
Perigee alt
482.3 km
Apogee alt
483.8 km
Semi-major
6,861.2 km
B*
3.5637e-5
RAAN
240.2163°
Arg perigee
291.6017°
Mean anomaly
68.4718°
Rev number
18,022

§ Raw data

STARLINK-61271 57135U 23090AL  26263.98472182  .00000719  00000+0  35637-4 0  99992 57135  43.0043 240.2163 0001090 291.6017  68.4718 15.27576924180226

JSON: /api/v1/satellites/57135 · /tle

For live sub-satellite position, see the globe view (requires WebGL).

§ Visibility from observer

Set your observer location to see the next 7 days of passes ≥ 10°. The values pass through the URL so the page stays shareable.

No JS? Fill the form by hand. The geolocation button needs JavaScript.